Location: Caltech
(34.1382°N, 118.1253°W)
Time: 12:36:52
(UTC-08:00)

A-11 Canister half - All Passes

Search period start: 20 November 2014 00:00
Search period end: 30 November 2014 00:00
Orbit: 1518 x 1682 km, 47.2° (Epoch: 19 November)

Date Brightness Start Highest point End Pass type
(mag) Time Alt. Az. Time Alt. Az. Time Alt. Az.
20 Nov - 06:46:24 10° SSE 06:52:29 18° ESE 06:58:35 10° E daylight
20 Nov - 08:46:16 10° SW 08:56:16 70° SE 09:06:19 10° ENE daylight
20 Nov - 10:52:00 10° W 11:01:49 51° NNW 11:11:34 10° NE daylight
20 Nov - 12:59:39 10° WNW 13:08:56 39° N 13:18:00 10° ENE daylight
20 Nov - 15:05:49 10° NW 15:15:44 61° NNE 15:25:17 10° ESE daylight
20 Nov - 17:11:17 10° WNW 17:20:41 52° SW 17:29:47 10° SSE visible
21 Nov - 06:24:11 10° SSE 06:29:40 16° ESE 06:35:11 10° E daylight
21 Nov - 08:23:27 10° SW 08:33:22 66° SE 08:43:23 10° ENE daylight
21 Nov - 10:28:58 10° W 10:38:49 53° NNW 10:48:39 10° NE daylight
21 Nov - 12:36:36 10° WNW 12:45:53 39° N 12:54:59 10° ENE daylight
21 Nov - 14:42:53 10° NW 14:52:47 58° NNE 15:02:19 10° ESE daylight
21 Nov - 16:48:18 10° WNW 16:57:51 55° SW 17:07:03 10° SSE daylight
21 Nov - 18:59:01 10° WSW 19:01:12 11° WSW 19:03:22 10° SW visible
22 Nov - 06:02:05 10° SSE 06:06:52 15° ESE 06:11:40 10° E visible
22 Nov - 08:00:39 10° SSW 08:10:29 62° SE 08:20:26 10° ENE daylight
22 Nov - 10:05:56 10° WSW 10:15:50 55° NNW 10:25:43 10° NE daylight
22 Nov - 12:13:34 10° WNW 12:22:51 38° N 12:31:58 10° ENE daylight
22 Nov - 14:19:56 10° NW 14:29:49 56° NNE 14:39:21 10° ESE daylight
22 Nov - 16:25:20 10° WNW 16:35:00 59° SW 16:44:19 10° SSE daylight
22 Nov - 18:34:51 10° W 18:38:25 13° WSW 18:41:58 10° SW visible
23 Nov - 05:40:11 10° SE 05:44:04 13° ESE 05:47:58 10° E visible
23 Nov - 07:37:52 10° SSW 07:47:37 59° SE 07:57:29 10° ENE daylight
23 Nov - 09:42:55 10° WSW 09:52:51 57° NNW 10:02:48 10° NE daylight
23 Nov - 11:50:31 10° WNW 11:59:48 39° N 12:08:58 10° ENE daylight
23 Nov - 13:56:59 10° NW 14:06:50 54° NNE 14:16:22 10° E daylight
23 Nov - 16:02:22 10° WNW 16:12:08 63° SW 16:21:33 10° SE daylight
23 Nov - 18:11:08 10° W 18:15:39 14° WSW 18:20:07 10° SSW visible
24 Nov - 05:18:39 10° SE 05:21:16 11° ESE 05:23:54 10° ESE visible
24 Nov - 07:15:06 10° SSW 07:24:44 55° SE 07:34:31 10° ENE daylight
24 Nov - 09:19:54 10° WSW 09:29:52 60° NNW 09:39:52 10° NE daylight
24 Nov - 11:27:27 10° WNW 11:36:46 39° N 11:45:57 10° ENE daylight
24 Nov - 13:34:02 10° NW 13:43:51 52° NNE 13:53:22 10° E daylight
24 Nov - 15:39:24 10° WNW 15:49:16 67° SW 15:58:47 10° SE daylight
24 Nov - 17:47:36 10° W 17:52:52 16° WSW 17:58:03 10° SSW visible
25 Nov - 06:52:21 10° SSW 07:01:52 51° SE 07:11:32 10° ENE daylight
25 Nov - 08:56:55 10° WSW 09:06:54 62° NNW 09:16:57 10° NE daylight
25 Nov - 11:04:24 10° WNW 11:13:43 39° N 11:22:57 10° ENE daylight
25 Nov - 13:11:05 10° NW 13:20:52 50° NNE 13:30:22 10° E daylight
25 Nov - 15:16:27 10° WNW 15:26:24 71° SW 15:35:59 10° SE daylight
25 Nov - 17:24:12 10° W 17:30:04 18° WSW 17:35:52 10° SSW visible
26 Nov - 06:29:38 10° SSW 06:39:01 48° SE 06:48:33 10° ENE daylight
26 Nov - 08:33:55 10° WSW 08:43:56 65° NNW 08:54:02 10° NE daylight
26 Nov - 10:41:21 10° WNW 10:50:41 39° N 10:59:57 10° ENE daylight
26 Nov - 12:48:07 10° NW 12:57:52 49° NNE 13:07:22 10° E daylight
26 Nov - 14:53:30 10° NW 15:03:31 75° SW 15:13:11 10° SE daylight
26 Nov - 17:00:53 10° W 17:07:17 20° WSW 17:13:35 10° SSW visible
27 Nov - 06:06:56 10° SSW 06:16:09 45° SE 06:25:33 10° ENE visible
27 Nov - 08:10:57 10° WSW 08:20:58 68° NNW 08:31:06 10° NE daylight
27 Nov - 10:18:17 10° WNW 10:27:38 40° N 10:36:57 10° ENE daylight
27 Nov - 12:25:09 10° NW 12:34:52 47° NNE 12:44:21 10° E daylight
27 Nov - 14:30:33 10° NW 14:40:38 80° SW 14:50:21 10° SE daylight
27 Nov - 16:37:37 10° W 16:44:29 22° SW 16:51:14 10° S daylight
28 Nov - 05:44:15 10° SSW 05:53:18 42° SE 06:02:32 10° ENE visible
28 Nov - 07:47:59 10° WSW 07:58:01 71° NNW 08:08:11 10° NE daylight
28 Nov - 09:55:14 10° WNW 10:04:36 40° N 10:13:57 10° ENE daylight
28 Nov - 12:02:11 10° NW 12:11:52 46° NNE 12:21:19 10° E daylight
28 Nov - 14:07:37 10° NW 14:17:44 84° SW 14:27:31 10° SE daylight
28 Nov - 16:14:24 10° WNW 16:21:41 24° SW 16:28:50 10° S daylight
29 Nov - 05:21:36 10° SSW 05:30:28 39° SE 05:39:31 10° ENE visible
29 Nov - 07:25:02 10° WSW 07:35:04 74° NNW 07:45:15 10° NE daylight
29 Nov - 09:32:10 10° WNW 09:41:34 41° N 09:50:58 10° ENE daylight
29 Nov - 11:39:13 10° NW 11:48:51 45° NNE 11:58:17 10° E daylight
29 Nov - 13:44:41 10° NW 13:54:50 88° SW 14:04:39 10° SE daylight
29 Nov - 15:51:14 10° WNW 15:58:53 26° SW 16:06:22 10° S daylight
